Track OPS 6026 (DMSP 4A F1) now! 10-day predictions OPS 6026 (DMSP 4A F1) is classified as:
1 02418U 66082A 21025.80501235 .00000038 00000-0 23724-4 0 9994 2 02418 98.1764 219.8497 0118100 229.1524 129.9383 14.41789263828499